Weather History for Idabel, OK

Change the Weather History Date:

Monday, January 28, 2013

  Actual Average (KDEQ) Record (KDEQ)
Temperature  
Mean Temperature 66 °F 42 °F  
Max Temperature 71 °F 54 °F 78 °F (1970)
Min Temperature 62 °F 29 °F 10 °F (1963)
Degree Days  
Heating Degree Days 0 23  
Month to date heating degree days 661  
Since 1 July heating degree days 1870  
Cooling Degree Days 2 0  
Month to date cooling degree days 0  
Year to date cooling degree days 0  
Growing Degree Days 16 (Base 50)    
Moisture  
Dew Point 61 °F    
Average Humidity 81    
Maximum Humidity 94    
Minimum Humidity 68    
Precipitation  
Precipitation 0.00 in 0.11 in 1.46 in (2006)
Month to date precipitation 2.99  
Year to date precipitation 2.99  
Snow  
Snow 0.00 in - - ()
Month to date snowfall  
Since 1 July snowfall  
Snow Depth -    
Sea Level Pressure  
Sea Level Pressure 29.99 in    
Wind  
Wind Speed 10 mph (SSE)    
Max Wind Speed 18 mph    
Max Gust Speed 21 mph    
Visibility 10 miles    
Events      
T = Trace of Precipitation, MM = Missing Value Source: NWS Daily Summary

Daily Weather History Graph

Daily Weather History Graph

Search for Another Location

Airport:

Trip Planner

Search our weather history database for the weather conditions in past years. The results will help you decide how hot, cold, wet, or windy it might be!

Date:

Astronomy

Jan. 28, 2013 Rise Set
Actual Time 7:18 AM CST 5:46 PM CST
Civil Twilight 6:52 AM CST 6:12 PM CST
Nautical Twilight 6:22 AM CST 6:42 PM CST
Astronomical Twilight 5:52 AM CST 7:12 PM CST
Moon 7:34 PM CST (1/28) 7:51 AM CST (1/28)
Length of Visible Light 11h 20m
Length of Day
10h 27m
Full, 98% of the Moon is Illuminated
Jan 28
Full
Feb 3
Last Quarter
Feb 10
New
Feb 17
First Quarter
Feb 25
Full

Hourly Weather History & Observations

Time (CST) Temp. Dew Point Humidity Pressure Visibility Wind Dir Wind Speed Gust Speed Precip Events Conditions
12:15 AM 62.6 °F 59.0 °F 88% 30.02 in 10.0 mi SSE 11.5 mph - N/A   Overcast
12:35 AM 62.6 °F 59.0 °F 88% 30.02 in 10.0 mi South 10.4 mph - N/A   Mostly Cloudy
12:55 AM 62.6 °F 59.0 °F 88% 30.02 in 10.0 mi South 9.2 mph - N/A   Mostly Cloudy
1:15 AM 64.4 °F 59.0 °F 83% 30.03 in 10.0 mi South 10.4 mph - N/A   Mostly Cloudy
1:55 AM 64.4 °F 60.8 °F 88% 30.03 in 10.0 mi South 9.2 mph - N/A   Overcast
2:15 AM 64.4 °F 60.8 °F 88% 30.03 in 10.0 mi South 11.5 mph - N/A   Overcast
2:55 AM 64.4 °F 60.8 °F 88% 30.02 in 10.0 mi South 11.5 mph - N/A   Overcast
3:15 AM 64.4 °F 60.8 °F 88% 30.03 in 10.0 mi South 13.8 mph - N/A   Overcast
3:35 AM 64.4 °F 60.8 °F 88% 30.03 in 10.0 mi South 16.1 mph - N/A   Mostly Cloudy
3:55 AM 64.4 °F 60.8 °F 88% 30.02 in 10.0 mi South 13.8 mph - N/A   Mostly Cloudy
4:15 AM 64.4 °F 60.8 °F 88% 30.03 in 10.0 mi South 11.5 mph - N/A   Overcast
4:35 AM 64.4 °F 60.8 °F 88% 30.02 in 10.0 mi South 9.2 mph - N/A   Overcast
4:55 AM 64.4 °F 60.8 °F 88% 30.02 in 10.0 mi South 9.2 mph - N/A   Overcast
5:15 AM 64.4 °F 60.8 °F 88% 30.02 in 10.0 mi SSE 9.2 mph - N/A   Overcast
5:35 AM 64.4 °F 60.8 °F 88% 30.02 in 10.0 mi South 10.4 mph - N/A   Overcast
5:55 AM 64.4 °F 60.8 °F 88% 30.03 in 10.0 mi South 11.5 mph - N/A   Overcast
6:15 AM 64.4 °F 60.8 °F 88% 30.03 in 10.0 mi South 11.5 mph - N/A   Overcast
6:35 AM 64.4 °F 60.8 °F 88% 30.03 in 10.0 mi SSE 11.5 mph - N/A   Overcast
6:55 AM 64.4 °F 60.8 °F 88% 30.04 in 10.0 mi SSE 10.4 mph - N/A   Mostly Cloudy
7:15 AM 62.6 °F 59.0 °F 88% 30.04 in 10.0 mi SSE 9.2 mph - N/A   Mostly Cloudy
7:35 AM 62.6 °F 60.8 °F 94% 30.04 in 10.0 mi South 9.2 mph - N/A   Mostly Cloudy
7:55 AM 62.6 °F 60.8 °F 94% 30.05 in 10.0 mi SSE 9.2 mph - N/A   Overcast
8:15 AM 64.4 °F 60.8 °F 88% 30.06 in 10.0 mi SSE 9.2 mph - N/A   Overcast
8:35 AM 64.4 °F 60.8 °F 88% 30.06 in 10.0 mi SSE 8.1 mph - N/A   Overcast
8:55 AM 64.4 °F 60.8 °F 88% 30.06 in 10.0 mi SSE 10.4 mph - N/A   Overcast
9:15 AM 64.4 °F 60.8 °F 88% 30.06 in 10.0 mi SSE 10.4 mph - N/A   Overcast
9:35 AM 64.4 °F 60.8 °F 88% 30.07 in 10.0 mi SSE 8.1 mph - N/A   Overcast
9:55 AM 66.2 °F 60.8 °F 83% 30.07 in 10.0 mi SSE 9.2 mph - N/A   Overcast
10:15 AM 66.2 °F 60.8 °F 83% 30.06 in 10.0 mi SSE 9.2 mph - N/A   Overcast
10:35 AM 66.2 °F 60.8 °F 83% 30.06 in 10.0 mi SSE 8.1 mph - N/A   Overcast
10:55 AM 66.2 °F 60.8 °F 83% 30.06 in 10.0 mi SE 8.1 mph - N/A   Overcast
11:15 AM 68.0 °F 60.8 °F 78% 30.06 in 10.0 mi SE 5.8 mph - N/A   Overcast
11:35 AM 68.0 °F 60.8 °F 78% 30.06 in 10.0 mi SE 5.8 mph - N/A   Overcast
11:55 AM 68.0 °F 60.8 °F 78% 30.05 in 10.0 mi SE 6.9 mph - N/A   Overcast
12:15 PM 68.0 °F 60.8 °F 78% 30.03 in 10.0 mi SE 6.9 mph - N/A   Mostly Cloudy
12:35 PM 68.0 °F 62.6 °F 83% 30.02 in 10.0 mi SE 6.9 mph - N/A   Mostly Cloudy
12:55 PM 68.0 °F 62.6 °F 83% 30.01 in 10.0 mi SE 8.1 mph - N/A   Mostly Cloudy
1:15 PM 68.0 °F 62.6 °F 83% 30.00 in 10.0 mi SSE 9.2 mph - N/A   Mostly Cloudy
1:35 PM 69.8 °F 62.6 °F 78% 29.99 in 10.0 mi South 10.4 mph - N/A   Mostly Cloudy
1:55 PM 68.0 °F 62.6 °F 83% 29.97 in 10.0 mi SSE 10.4 mph - N/A   Mostly Cloudy
2:15 PM 69.8 °F 62.6 °F 78% 29.96 in 10.0 mi SE 8.1 mph - N/A   Scattered Clouds
2:35 PM 69.8 °F 62.6 °F 78% 29.96 in 10.0 mi SE 9.2 mph - N/A   Mostly Cloudy
2:55 PM 69.8 °F 62.6 °F 78% 29.95 in 10.0 mi SSE 11.5 mph - N/A   Mostly Cloudy
3:15 PM 69.8 °F 62.6 °F 78% 29.94 in 10.0 mi SSE 12.7 mph 17.3 mph N/A   Overcast
3:35 PM 71.6 °F 62.6 °F 73% 29.94 in 10.0 mi SSE 8.1 mph - N/A   Mostly Cloudy
4:15 PM 71.6 °F 60.8 °F 69% 29.93 in 10.0 mi South 12.7 mph - N/A   Mostly Cloudy
4:35 PM 71.6 °F 60.8 °F 69% 29.93 in 10.0 mi South 9.2 mph - N/A   Mostly Cloudy
4:55 PM 71.6 °F 62.6 °F 73% 29.93 in 10.0 mi SSE 9.2 mph - N/A   Scattered Clouds
5:15 PM 69.8 °F 60.8 °F 73% 29.92 in 10.0 mi SE 8.1 mph - N/A   Scattered Clouds
5:35 PM 69.8 °F 60.8 °F 73% 29.92 in 10.0 mi SE 6.9 mph - N/A   Mostly Cloudy
5:55 PM 69.8 °F 60.8 °F 73% 29.92 in 10.0 mi SE 6.9 mph - N/A   Mostly Cloudy
6:15 PM 69.8 °F 60.8 °F 73% 29.92 in 10.0 mi ESE 8.1 mph - N/A   Mostly Cloudy
6:35 PM 69.8 °F 60.8 °F 73% 29.92 in 10.0 mi ESE 8.1 mph - N/A   Scattered Clouds
6:55 PM 68.0 °F 60.8 °F 78% 29.92 in 10.0 mi ESE 8.1 mph - N/A   Scattered Clouds
7:15 PM 68.0 °F 60.8 °F 78% 29.92 in 10.0 mi SE 8.1 mph - N/A   Scattered Clouds
7:35 PM 68.0 °F 60.8 °F 78% 29.92 in 10.0 mi SE 8.1 mph - N/A   Mostly Cloudy
7:55 PM 69.8 °F 60.8 °F 73% 29.92 in 10.0 mi SE 12.7 mph 18.4 mph N/A   Mostly Cloudy
8:15 PM 69.8 °F 59.0 °F 68% 29.93 in 10.0 mi SSE 11.5 mph 20.7 mph N/A   Mostly Cloudy
8:35 PM 69.8 °F 59.0 °F 68% 29.93 in 10.0 mi SSE 12.7 mph 16.1 mph N/A   Overcast
8:55 PM 69.8 °F 59.0 °F 68% 29.93 in 10.0 mi SSE 12.7 mph - N/A   Overcast
9:15 PM 69.8 °F 59.0 °F 68% 29.92 in 10.0 mi SSE 15.0 mph 20.7 mph N/A   Overcast
9:35 PM 69.8 °F 59.0 °F 68% 29.92 in 10.0 mi SSE 13.8 mph 19.6 mph N/A   Overcast
9:55 PM 68.0 °F 59.0 °F 73% 29.92 in 10.0 mi SSE 13.8 mph 20.7 mph N/A   Overcast
10:15 PM 68.0 °F 59.0 °F 73% 29.92 in 10.0 mi SSE 15.0 mph 19.6 mph N/A   Overcast
10:35 PM 68.0 °F 59.0 °F 73% 29.92 in 10.0 mi SSE 15.0 mph 20.7 mph N/A   Overcast
10:55 PM 68.0 °F 59.0 °F 73% 29.92 in 10.0 mi SSE 18.4 mph - N/A   Overcast
11:15 PM 68.0 °F 59.0 °F 73% 29.91 in 10.0 mi SSE 12.7 mph 18.4 mph N/A   Overcast
11:35 PM 68.0 °F 59.0 °F 73% 29.91 in 10.0 mi SSE 15.0 mph - N/A   Overcast
11:55 PM 68.0 °F 59.0 °F 73% 29.91 in 10.0 mi South 12.7 mph 19.6 mph N/A   Mostly Cloudy